Regional Weather Roundup
Issued by NWS Cleveland, OH

Home | Current Version | Previous Version | Graphics & Text | Print | Product List | Glossary On
Versions: 1 2 3 4 5 6 7 8 9 10 11 12 13 14 15 16 17 18 19 20 21 22 23 24 25 26 27 28 29 30 31 32 33 34 35 36 37 38 39 40 41 42 43 44 45 46 47 48 49 50
000
ASUS41 KCLE 301410
RWRCLE
OHIO REGIONAL WEATHER ROUNDUP
NATIONAL WEATHER SERVICE CLEVELAND, OH
1000 AM EDT SAT JUL 30 2016

NOTE: "FAIR" INDICATES FEW OR NO CLOUDS BELOW 12,000 FEET WITH NO
SIGNIFICANT WEATHER AND/OR OBSTRUCTIONS TO VISIBILITY.

OHZ001>008-015>018-024>027-034-035-043-044-301500-
   NORTHWEST OHIO

CITY           SKY/WX    TMP DP  RH WIND       PRES   REMARKS
DEFIANCE       CLOUDY    71  64  78 N3        29.97R
FINDLAY        CLOUDY    75  68  78 VRB3      29.95R HAZE
TOLEDO EXPRESS MOSUNNY   75  69  81 N3        29.95S
TOLEDO EXEC    MOSUNNY   78  71  79 VRB3      29.95S
LIMA           PTSUNNY   73  71  93 W9        29.96R
$$

OHZ009>014-019>023-028>033-038-089-301500-
   NORTHEAST OHIO

CITY           SKY/WX    TMP DP  RH WIND       PRES   REMARKS
CLE-HOPKINS    CLOUDY    78  66  66 SE6       29.97R
CLE-LAKEFRONT  MOSUNNY   79  69  71 N5        29.94R
CUY CO. ARPT   NOT AVBL
LORAIN-ELYRIA  PTSUNNY   75  68  78 S6        29.96R
ASHTABULA      CLOUDY    71  69  93 E7        29.98S
AKRON-CANTON   CLOUDY    75  68  78 SE5       29.97S
WOOSTER        PTSUNNY   73  67  81 SW7       29.97S
MANSFIELD      PTSUNNY   77  69  76 SW5       29.97S
YOUNGSTOWN     CLOUDY    71  67  87 E6        29.98R
$$

OHZ042-051>053-060>062-070>072-077>081-301500-
  SOUTHWEST OHIO

CITY           SKY/WX    TMP DP  RH WIND       PRES   REMARKS
CINC-COVINGTON CLOUDY    73  72  94 W8        29.99R FOG
CINC-LUNKEN    CLOUDY    74  73  97 SW3       29.97S
HAMILTON       CLOUDY    75  70  84 W6        29.98R
DAYTON         CLOUDY    71  69  93 W7        29.98S FOG
WRIGHT-PAT AFB CLOUDY    73  72  96 SW5       29.96S
DAYTON GENERAL CLOUDY    74  68  81 VRB3      29.97R
WILMINGTON     CLOUDY    72  70  93 SW5       29.98R FOG
$$

OHZ036-037-039>041-045>050-054>059-063>069-073>076-082>088-301500-
  CENTRAL AND SOUTHEAST OHIO

CITY           SKY/WX    TMP DP  RH WIND       PRES   REMARKS
COLUMBUS       CLOUDY    74  69  85 SW6       29.95S
OSU AIRPORT    MOSUNNY   76  70  82 S6        29.96R
BOLTON FIELD   PTSUNNY   73  70  88 SW6       29.97
RICKENBACK AFB PTSUNNY   74  70  87 SW6       29.95S
NEWARK         CLOUDY    74  70  87 VRB6      29.95F
MARION         MOSUNNY   76  68  76 S7        29.96S
LANCASTER      PTSUNNY   76  72  87 SW5       29.97R
ZANESVILLE     CLOUDY    74  70  87 W8        29.96S
NEW PHILLY     CLOUDY    74  68  81 CALM      29.97R
$$



USA.gov is the U.S. government's official web portal to all federal, state and local government web resources and services.